Location: ?????
(55.9408°N, 37.8933°E)
Time: 22:40:36
(UTC+00:00)

Daily predictions for brighter satellites

Satellite Brightness Start Highest point End
(mag) Time Altitude Azimuth Time Altitude Azimuth Time Altitude Azimuth
Cosmos 2061 Rocket 4.1 14:58:04 10° N 15:04:28 67° ENE 15:10:45 10° SSE
SMAP 3.9 15:00:01 10° S 15:04:37 57° WSW 15:09:14 10° NNW
Spot 4 Rocket 4.3 15:01:13 10° SE 15:06:03 45° ENE 15:10:54 10° N
ARIANE 5 R/B 2.8 15:05:30 10° SSE 15:10:36 78° WSW 15:15:41 10° NNW
SJ-6F 4.3 15:06:52 10° SSE 15:10:48 80° ENE 15:14:44 10° NNW
UNK 3.7 15:06:14 10° NNE 15:10:50 75° ESE 15:15:24 10° S
SAR-Lupe-1 4.1 15:07:21 10° SSE 15:10:52 60° ENE 15:14:25 10° N
Okean 1 Rocket 3.0 15:07:30 10° N 15:11:55 64° ENE 15:16:15 10° SSE
NOSS 3-4 (A) 3.8 15:05:43 10° NW 15:12:07 86° NE 15:19:43 10° SE
CZ-4C R/B 2.3 15:08:05 10° SSW 15:12:19 46° SE 15:17:42 10° NE
NOSS 3-4 (C) 3.8 15:05:59 10° NW 15:12:25 86° NE 15:20:02 10° SE
SL-16 R/B 2.9 15:06:45 10° NNE 15:12:56 71° WNW 15:19:07 10° SSW
USA 290 2.1 15:11:59 10° SSW 15:15:10 79° ESE 15:18:23 10° NNE
Aureole 3 Rocket 2.8 15:14:49 10° N 15:18:57 49° ENE 15:22:11 10° SSE
Okean 2 Rocket 3.0 15:15:18 10° N 15:19:44 84° ENE 15:24:07 10° SSE
SL-16 R/B 2.7 15:14:38 10° NNW 15:20:00 41° NE 15:25:20 10° ESE
Cosmos 1378 Rocket 3.5 15:17:21 10° S 15:21:39 84° E 15:25:58 10° NNE
BREEZE-M DEB (TANK) 4.5 15:19:32 10° WSW 15:22:27 35° S 15:29:24 10° ESE
SJ-12 4.4 15:18:59 10° S 15:22:45 61° WSW 15:26:32 10° NNW
Cosmos 2227 Rocket 3.6 15:19:40 10° SE 15:23:15 17° E 15:26:50 10° ENE
Cosmos 1315 Rocket 3.7 15:19:51 10° NNW 15:23:33 51° W 15:27:15 10° S
Cosmos 2221 Rocket 3.9 15:22:41 10° SSE 15:26:58 47° E 15:31:19 10° NNE
SAR-Lupe-4 3.5 15:23:27 10° SSE 15:27:02 89° ENE 15:30:38 10° NNW
Cosmos 1025 Rocket 3.1 15:24:58 10° S 15:29:13 59° E 15:33:31 10° NNE
ATLAS 2AS CENTAUR R/B 3.3 15:23:23 10° W 15:30:07 52° NNW 15:36:45 10° ENE
Cosmos 2150 Rocket 4.0 15:25:41 10° NNW 15:30:48 58° NE 15:35:52 10° SE
BREEZE-M DEB (TANK) 4.5 15:27:33 10° WSW 15:31:30 48° S 15:45:39 10° ESE
Cosmos 1346 Rocket 4.5 15:30:14 10° ESE 15:31:09 12° E 15:31:09 12° E
Cosmos 2298 Rocket 4.1 15:29:28 10° NNW 15:34:44 59° NE 15:39:57 10° SE
Cosmos 2123 Rocket 4.3 15:29:12 10° SSW 15:35:31 73° WNW 15:41:50 10° N
Sich 1 Rocket 3.7 15:31:44 10° NNW 15:36:18 85° W 15:40:52 10° S
SKYMED 2 3.6 15:35:30 10° NNE 15:39:50 60° ESE 15:44:08 10° S
GP-B 3.7 15:37:00 10° SSW 15:41:19 60° W 15:45:40 10° N
Resurs 1-3 3.7 15:40:24 10° SSE 15:44:42 81° WSW 15:49:03 10° NNW
BREEZE-M (TANK) 4.3 15:46:41 10° WSW 15:48:48 21° S 15:52:36 10° SE
USA 267 3.4 15:43:08 13° ENE 15:49:09 65° SSE 15:55:39 10° SW
CZ-4B R/B 4.3 15:48:18 15° E 15:50:59 22° NE 15:54:59 10° N
ATLAS CENTAUR R/B 2.1 15:49:17 10° NNW 15:51:33 20° NNE 15:52:30 17° NE
Resurs 01 Rocket 1.6 15:47:30 10° SSE 15:51:50 61° ENE 15:56:12 10° N
Lacrosse 5 rocket 0.9 15:48:31 10° WSW 15:52:02 86° NNW 15:54:24 20° ENE
Radarsat Rocket 4.1 15:47:30 10° SSE 15:53:27 87° WSW 16:00:04 10° NNW
CZ-4 R/B 2.5 15:52:51 19° ENE 15:53:40 20° ENE 15:56:28 10° N
Cosmos 1782 2.9 15:53:12 10° N 15:56:37 39° ENE 16:00:00 10° SE
Cosmos 1674 Rocket 4.1 15:54:39 10° SSW 15:59:02 64° WNW 16:03:27 10° N
CSL-04 Rocket 4.1 15:54:51 10° SE 15:59:40 37° ENE 16:04:31 10° N
Cosmos 2344 4.4 15:55:10 10° SSE 16:01:02 24° ESE 16:04:25 17° ENE
Cosmos 2082 Rocket 4.2 15:57:35 10° WNW 16:01:38 19° NNW 16:05:42 10° NNE
ERS-1 Rocket 4.2 16:00:19 19° E 16:01:59 22° NE 16:05:48 10° N
SL-19 R/B 4.4 15:56:16 10° SSE 16:02:23 89° ENE 16:08:13 10° NNW
CARTOSAT-1 3.5 15:58:54 10° SSE 16:03:07 88° WSW 16:07:22 10° NNW
Cosmos 1447 Rocket 4.4 15:59:21 10° S 16:05:30 83° E 16:11:42 10° NNE
ARIANE 6 FM1 Upper Stage 2.4 16:02:51 10° NW 16:06:51 84° NE 16:09:27 21° ESE
Cosmos 1943 3.8 16:01:31 10° NNW 16:06:52 38° NE 16:10:06 21° E
Cosmos 2297 Rocket 2.2 16:01:25 10° SSW 16:06:59 63° ESE 16:12:36 10° NE
RESURS DK-1 3.3 16:09:38 10° NNW 16:13:11 29° NE 16:14:11 26° ENE
SPOT 5 3.3 16:13:19 13° SE 16:17:30 45° ENE 16:22:26 10° N
IRAS Rocket 4.2 16:12:21 10° SSE 16:17:58 83° ENE 16:23:39 10° NNW
SeaSat 1 4.5 16:14:38 10° S 16:18:53 29° WSW 16:23:10 10° NW
Cosmos 1867 4.1 16:14:15 10° WSW 16:19:37 56° NNW 16:24:09 15° NE
NOSS 3-3 (C) 3.8 16:14:43 10° SW 16:20:11 83° SE 16:25:36 16° NE
Okean-O 4.4 16:22:27 15° NE 16:22:27 15° NE 16:24:25 10° NNE
Okean O Rocket 3.3 16:24:35 17° NE 16:24:35 17° NE 16:26:46 10° NNE
SJ-6B 2.3 16:21:52 10° SSE 16:25:19 87° ENE 16:28:47 10° NNW
Iridium 4 Rocket 4.4 16:21:33 10° NNE 16:24:55 24° ENE 16:24:55 24° ENE
Cosmos 2228 2.9 16:22:10 10° NNW 16:26:23 84° W 16:30:35 10° S
COSMO-SKYMED 1 2.4 16:22:30 10° NNE 16:26:39 84° WNW 16:30:46 10° SSW
PSLV R/B 4.4 16:24:24 10° S 16:28:23 50° W 16:32:23 10° NNW
Cosmos 1544 Rocket 3.5 16:24:08 10° N 16:28:26 58° ENE 16:31:54 15° SSE
Cosmos 1570 Rocket 3.9 16:23:52 10° SSW 16:29:08 78° ESE 16:34:25 10° NNE
Cosmos 2034 Rocket 3.9 16:23:10 10° N 16:29:19 67° ENE 16:35:29 10° SSE
Cosmos 1607 4.2 16:25:45 10° WSW 16:31:52 68° NW 16:36:58 16° NE
Meteor 1-31 Rocket 2.5 16:32:28 46° ESE 16:33:06 55° ENE 16:36:30 10° N
Cosmos 1455 Rocket 4.2 16:29:11 10° NNW 16:33:17 45° W 16:37:23 10° SSW
DMSP B5D1-3 4.4 16:28:46 10° NNE 16:33:54 70° ESE 16:39:00 10° S
Cosmos 2263 Rocket 2.8 16:28:56 10° S 16:33:55 33° ESE 16:34:55 31° E
ADEOS 4.1 16:32:23 31° E 16:34:01 39° ENE 16:38:50 10° N
Cosmos 1634 Rocket 4.2 16:29:37 10° N 16:35:45 48° ENE 16:39:43 21° SE
Cosmos 2237 Rocket 4.0 16:32:25 10° NW 16:37:26 33° WSW 16:42:26 10° S
Cosmos 1975 Rocket 2.9 16:35:13 10° S 16:39:33 76° E 16:43:52 10° NNE
CZ-4B R/B 3.6 16:37:56 27° SSE 16:40:01 71° ENE 16:43:51 10° NNW
Feng Yun 1-1 Rocket 4.4 16:41:06 23° SE 16:44:40 57° ENE 16:50:28 10° NNW
Cosmos 972 Rocket 3.9 16:40:53 10° NNW 16:45:49 61° ENE 16:47:52 35° SE
Cosmos 773 Rocket 3.9 16:40:37 10° SSW 16:45:54 82° ESE 16:51:14 10° NNE
NOSS 3-3 (A) 4.0 16:41:10 10° WSW 16:46:42 74° NNW 16:51:18 21° NE
PAYLOAD B 4.3 16:44:10 28° SE 16:47:01 56° ENE 16:52:30 10° NNW
Cosmos 1833 Rocket 4.2 16:46:06 10° NNW 16:50:24 22° NNE 16:51:50 20° NE
Cosmos 2208 Rocket 3.9 16:46:10 10° SSW 16:51:26 84° ESE 16:56:50 10° NNE
Terra 2.3 16:52:47 39° ENE 16:52:47 39° ENE 16:56:59 10° N
Meteor 2-17 Rocket 4.5 16:48:01 10° SSW 16:54:05 82° WNW 17:00:11 10° NNE
Cosmos 1464 Rocket 4.5 16:50:03 10° NNW 16:56:21 64° W 17:02:33 10° S
Cosmos 2279 Rocket 4.2 16:50:55 10° N 16:56:54 47° ENE 16:58:26 39° ESE
CZ-4C R/B 2.5 16:55:41 10° WSW 17:00:25 58° NNW 17:03:44 26° NE
Cosmos 44 Rocket 3.2 16:57:31 10° SW 17:02:30 77° SE 17:03:58 47° ENE
Cosmos 2084 Rocket 4.2 17:00:12 10° NW 17:04:08 38° NNE 17:04:18 37° NNE
SL-16 R/B 2.7 16:58:48 10° NW 17:04:22 59° WSW 17:08:54 16° SSE
Cosmos 1346 Rocket 2.9 17:02:40 10° SSW 17:05:39 58° SSW 17:05:39 58° SSW
Cosmos 2227 Rocket 2.0 17:00:45 10° SSW 17:06:23 76° ESE 17:09:38 26° NE
MetOp-B 4.0 17:15:56 58° ESE 17:16:49 69° ENE 17:22:10 10° NNW
Cosmos 1420 Rocket 4.1 17:16:45 10° NNW 17:21:43 58° NE 17:21:43 58° NE
ATLAS 2AS CENTAUR R/B 3.3 17:15:38 10° WNW 17:22:12 46° N 17:24:21 36° NE
ATLAS CENTAUR R/B 3.1 17:22:48 10° NW 17:23:42 18° NW 17:23:42 18° NW
CZ-4 R/B 1.9 17:27:51 52° WNW 17:27:51 52° WNW 17:31:08 10° NNW
Resurs 01 Rocket 4.0 17:25:06 10° SW 17:28:34 22° W 17:32:04 10° NW
Lacrosse 5 rocket 2.2 17:25:25 10° W 17:27:50 41° WNW 17:27:50 41° WNW
IRS-1A Rocket 4.2 17:29:14 64° E 17:29:33 66° ENE 17:35:11 10° NNW
CZ-4B R/B 3.0 17:30:09 66° SSE 17:30:57 87° ENE 17:36:17 10° NNW
MOS 1-B 4.3 17:31:40 62° ENE 17:31:44 62° ENE 17:37:28 10° NNW
USA 267 3.2 17:30:29 50° ENE 17:32:25 85° N 17:38:59 10° W
CZ-4B DEB 4.5 17:33:03 30° S 17:35:45 66° WSW 17:41:13 10° NNW
CSL-04 Rocket 4.4 17:35:40 15° S 17:39:56 48° W 17:45:04 10° NNW
ERS-1 Rocket 2.9 17:40:10 84° WSW 17:40:10 84° WSW 17:45:12 10° NNW
Cosmos 44 4.0 17:36:06 10° NW 17:40:56 49° NNE 17:40:56 49° NNE
Cosmos 2082 Rocket 4.0 17:43:47 10° NNW 17:47:52 20° NNE 17:48:32 19° NNE
RESURS DK-1 3.7 17:46:54 10° NW 17:49:28 36° WNW 17:49:28 36° WNW
Cosmos 1943 3.4 17:45:36 10° NW 17:51:15 65° WSW 17:51:54 60° SSW
Cosmos 2297 Rocket 3.4 17:46:05 10° WSW 17:51:22 39° NW 17:55:14 17° NNE
Tsikada Rocket 4.0 17:46:29 10° SSW 17:52:39 79° WNW 17:58:53 10° N
SPOT 5 4.3 17:52:21 18° SSW 17:55:33 37° W 18:00:20 10° NNW
Okean-O 4.3 17:59:48 26° N 17:59:48 26° N 18:01:47 10° NNW
Okean O Rocket 3.3 18:01:50 27° NNW 18:01:50 27° NNW 18:03:54 10° NNW
Spot 2 Rocket 4.3 18:06:26 45° NNW 18:06:26 45° NNW 18:09:55 10° NNW
Iridium 4 Rocket 4.2 18:00:55 10° N 18:04:30 43° NW 18:04:30 43° NW
Cosmos 1603 3.9 18:01:24 10° NW 18:06:12 66° NW 18:06:12 66° NW
Cosmos 2180 Rocket 4.4 18:02:11 10° NNW 18:08:10 81° NNW 18:08:10 81° NNW
Cosmos 2056 Rocket 4.3 18:07:48 10° NNW 18:11:25 45° NNW 18:11:25 45° NNW
ADEOS 4.4 18:13:06 46° WSW 18:13:28 46° W 18:18:29 10° NNW
Cosmos 2344 3.2 18:06:47 10° SW 18:14:15 84° SE 18:14:29 82° E
Cosmos 2263 Rocket 2.7 18:11:51 10° SW 18:16:42 58° W 18:16:42 58° W
Terra 3.4 18:31:23 33° WNW 18:31:23 33° WNW 18:34:35 10° NNW
USA 281 4.2 18:34:00 34° NNE 18:34:00 34° NNE 18:38:52 10° NNW
Cosmos 909 Rocket 4.4 18:28:37 10° NW 18:33:54 61° NNW 18:33:54 61° NNW
Cosmos 1833 Rocket 4.0 18:30:08 10° NNW 18:33:30 33° N 18:33:30 33° N
CZ-4C R/B 3.4 18:44:29 10° WNW 18:48:41 39° NNW 18:48:41 39° NNW
Cosmos 2227 Rocket 3.6 18:45:49 10° WSW 18:50:57 34° NW 18:51:30 33° NNW
ATLAS 2AS CENTAUR R/B 3.5 19:07:05 10° NW 19:11:46 46° NW 19:11:46 46° NW
USA 267 4.1 19:17:49 44° WNW 19:17:49 44° WNW 19:22:04 10° WNW
Cosmos 2082 Rocket 4.3 19:28:12 10° NNW 19:30:22 22° NNW 19:30:22 22° NNW
Cosmos 2297 Rocket 4.4 19:32:56 10° WNW 19:37:00 20° NNW 19:37:03 20° NNW
CENTAUR R/B 4.2 23:07:19 32° NE 23:07:19 32° NE 23:11:23 10° NE
ACS3 Solar Sail 3.8 23:21:06 10° NNE 23:23:03 21° NNE 23:23:03 21° NNE
SL-16 R/B 4.1 23:43:02 28° NNE 23:43:02 28° NNE 23:46:28 10° N
Cosmos 2369 Rocket 4.2 23:52:33 24° NNE 23:52:33 24° NNE 23:54:42 10° NNE
